Tracking 27420 objects as of 28-May-2023
HD Live streaming from Space Station
objects crossing your sky now

STARLINK-6173

Track STARLINK-6173 now!
10-day predictions
STARLINK-6173 is classified as:


NORAD ID: 56385
Int'l Code: 2023-061M
Perigee: 404.8 km
Apogee: 406.8 km
Inclination: 43.0 °
Period: 92.5 minutes
Semi major axis: 6776 km
RCS: Unknown
Launch date: May 4, 2023
Source: United States (US)
Launch site: AIR FORCE EASTERN TEST RANGE (AFETR)
Your satellite tracking list
Your tracking list is empty




NASA's NSSDC Master Catalog

Two Line Element Set (TLE):
1 56385U 23061M   23148.58334491 -.00941249  00000-0 -14448-1 0  9997
2 56385  42.9983 325.6237 0001462 268.4278 145.0190 15.56197078  4117
Source of the keplerian elements: AFSPC